,,PressureMeas_1m,,PRMeasQMR101_1,,RHStat155_1m_1,,SRMeasQMS101R_1m,,TAStat155_1m_1,,GenWind_1,,GenWind_1,
2019-10-13, 00:00:07,VALID,918.274,VALID,0.0,VALID,98.922,VALID,0.002,VALID,20.977,INVALID,360.0,VALID,0.0,
2019-10-13, 00:01:07,VALID,918.274,VALID,0.0,VALID,99.026,VALID,0.008,VALID,21.027,INVALID,360.0,VALID,0.0,
2019-10-13, 00:02:07,VALID,918.277,VALID,0.0,VALID,99.024,VALID,0.014,VALID,21.028,INVALID,360.0,VALID,0.0,
2019-10-13, 00:03:07,VALID,918.288,VALID,0.0,VALID,98.944,VALID,0.006,VALID,20.99,INVALID,360.0,VALID,0.0,
2019-10-13, 00:04:07,VALID,918.247,VALID,0.0,VALID,98.835,VALID,-0.013,VALID,20.945,INVALID,360.0,VALID,0.0,
2019-10-13, 00:05:07,VALID,918.242,VALID,0.0,VALID,98.95,VALID,-0.021,VALID,20.976,INVALID,360.0,VALID,0.0,
2019-10-13, 00:06:07,VALID,918.24,VALID,0.0,VALID,99.078,VALID,0.015,VALID,21.032,INVALID,360.0,VALID,0.0,
2019-10-13, 00:07:07,VALID,918.214,VALID,0.0,VALID,99.128,VALID,0.023,VALID,21.05,INVALID,360.0,VALID,0.0,
2019-10-13, 00:08:07,VALID,918.23,VALID,0.0,VALID,99.11,VALID,0.037,VALID,21.04,INVALID,360.0,VALID,0.0,
2019-10-13, 00:09:07,VALID,918.241,VALID,0.0,VALID,99.004,VALID,0.026,VALID,20.977,INVALID,360.0,VALID,0.0,
2019-10-13, 00:10:07,VALID,918.264,VALID,0.0,VALID,98.917,VALID,0.015,VALID,20.918,INVALID,360.0,VALID,0.0,
2019-10-13, 00:11:07,VALID,918.269,VALID,0.0,VALID,98.985,VALID,0.036,VALID,20.897,INVALID,360.0,VALID,0.0,
2019-10-13, 00:12:07,VALID,918.287,VALID,0.0,VALID,99.018,VALID,0.02,VALID,20.87,INVALID,360.0,VALID,0.0,
2019-10-13, 00:13:07,VALID,918.252,VALID,0.0,VALID,99.072,VALID,0.026,VALID,20.86,INVALID,360.0,VALID,0.0,
2019-10-13, 00:14:07,VALID,918.243,VALID,0.0,VALID,99.171,VALID,0.033,VALID,20.868,INVALID,360.0,VALID,0.0,
2019-10-13, 00:15:07,VALID,918.238,VALID,0.0,VALID,99.251,VALID,0.031,VALID,20.878,INVALID,360.0,VALID,0.0,
2019-10-13, 00:16:07,VALID,918.172,VALID,0.0,VALID,99.284,VALID,0.034,VALID,20.885,INVALID,360.0,VALID,0.0,
2019-10-13, 00:17:07,VALID,918.181,VALID,0.0,VALID,99.346,VALID,0.024,VALID,20.927,INVALID,360.0,VALID,0.0,
2019-10-13, 00:18:07,VALID,918.148,VALID,0.0,VALID,99.35,VALID,0.036,VALID,20.892,INVALID,360.0,VALID,0.0,
2019-10-13, 00:19:07,VALID,918.131,VALID,0.0,VALID,99.242,VALID,0.01,VALID,20.826,VALID,341.0,VALID,0.0,
2019-10-13, 00:20:07,VALID,918.141,VALID,0.0,VALID,99.234,VALID,0.023,VALID,20.818,INVALID,360.0,VALID,0.0,
2019-10-13, 00:21:07,VALID,918.139,VALID,0.0,VALID,99.248,VALID,-0.011,VALID,20.821,INVALID,360.0,VALID,0.0,
2019-10-13, 00:22:07,VALID,918.128,VALID,0.0,VALID,99.257,VALID,-0.027,VALID,20.84,INVALID,360.0,VALID,0.0,
2019-10-13, 00:23:07,VALID,918.103,VALID,0.0,VALID,99.384,VALID,-0.027,VALID,20.924,INVALID,360.0,VALID,0.0,
2019-10-13, 00:24:07,VALID,918.081,VALID,0.0,VALID,99.433,VALID,-0.025,VALID,20.943,INVALID,360.0,VALID,0.0,
2019-10-13, 00:25:07,VALID,918.06,VALID,0.0,VALID,99.344,VALID,-0.024,VALID,20.905,INVALID,360.0,VALID,0.0,
2019-10-13, 00:26:07,VALID,918.054,VALID,0.0,VALID,99.257,VALID,-0.027,VALID,20.872,VALID,276.0,VALID,0.0,
2019-10-13, 00:27:07,VALID,918.05,VALID,0.0,VALID,99.145,VALID,-0.026,VALID,20.827,VALID,276.0,VALID,0.0,
2019-10-13, 00:28:07,VALID,918.056,VALID,0.0,VALID,99.164,VALID,-0.021,VALID,20.859,VALID,283.0,VALID,0.0,
2019-10-13, 00:29:07,VALID,918.029,VALID,0.0,VALID,99.255,VALID,-0.048,VALID,20.934,INVALID,360.0,VALID,0.0,
2019-10-13, 00:30:07,VALID,918.003,VALID,0.0,VALID,99.236,VALID,-0.022,VALID,20.957,INVALID,360.0,VALID,0.0,
2019-10-13, 00:31:07,VALID,917.971,VALID,0.0,VALID,99.231,VALID,-0.032,VALID,20.97,INVALID,360.0,VALID,0.0,
2019-10-13, 00:32:07,VALID,917.946,VALID,0.0,VALID,99.16,VALID,-0.01,VALID,20.943,INVALID,360.0,VALID,0.0,
2019-10-13, 00:33:07,VALID,917.932,VALID,0.0,VALID,99.058,VALID,-0.016,VALID,20.914,INVALID,360.0,VALID,0.0,
2019-10-13, 00:34:07,VALID,917.905,VALID,0.0,VALID,98.972,VALID,-0.017,VALID,20.889,INVALID,360.0,VALID,0.0,
2019-10-13, 00:35:07,VALID,917.865,VALID,0.0,VALID,98.999,VALID,-0.037,VALID,20.917,INVALID,360.0,VALID,0.0,
2019-10-13, 00:36:07,VALID,917.841,VALID,0.0,VALID,98.944,VALID,-0.007,VALID,20.911,INVALID,360.0,VALID,0.0,
2019-10-13, 00:37:07,VALID,917.826,VALID,0.0,VALID,98.895,VALID,-0.002,VALID,20.915,INVALID,360.0,VALID,0.0,
2019-10-13, 00:38:07,VALID,917.84,VALID,0.0,VALID,98.862,VALID,-0.006,VALID,20.912,INVALID,360.0,VALID,0.0,
2019-10-13, 00:39:07,VALID,917.849,VALID,0.0,VALID,98.775,VALID,-0.002,VALID,20.887,INVALID,360.0,VALID,0.0,
2019-10-13, 00:40:07,VALID,917.837,VALID,0.0,VALID,98.797,VALID,0.014,VALID,20.904,INVALID,360.0,VALID,0.0,
2019-10-13, 00:41:07,VALID,917.854,VALID,0.0,VALID,98.783,VALID,-0.001,VALID,20.888,INVALID,360.0,VALID,0.0,
2019-10-13, 00:42:07,VALID,917.836,VALID,0.0,VALID,98.66,VALID,-0.016,VALID,20.847,INVALID,360.0,VALID,0.0,
2019-10-13, 00:43:07,VALID,917.799,VALID,0.0,VALID,98.807,VALID,0.007,VALID,20.908,INVALID,360.0,VALID,0.0,
2019-10-13, 00:44:07,VALID,917.769,VALID,0.0,VALID,98.856,VALID,-0.013,VALID,20.917,INVALID,360.0,VALID,0.0,
2019-10-13, 00:45:07,VALID,917.745,VALID,0.0,VALID,98.825,VALID,-0.011,VALID,20.902,INVALID,360.0,VALID,0.0,
2019-10-13, 00:46:07,VALID,917.725,VALID,0.0,VALID,98.904,VALID,-0.006,VALID,20.929,INVALID,360.0,VALID,0.0,
2019-10-13, 00:47:07,VALID,917.704,VALID,0.0,VALID,98.94,VALID,-0.012,VALID,20.949,INVALID,360.0,VALID,0.0,
2019-10-13, 00:48:07,VALID,917.696,VALID,0.0,VALID,98.925,VALID,-0.016,VALID,20.955,INVALID,360.0,VALID,0.0,
2019-10-13, 00:49:06,VALID,917.705,VALID,0.0,VALID,98.871,VALID,-0.017,VALID,20.946,INVALID,360.0,VALID,0.0,
2019-10-13, 00:50:06,VALID,917.72,VALID,0.0,VALID,98.844,VALID,-0.016,VALID,20.952,INVALID,360.0,VALID,0.0,
2019-10-13, 00:51:06,VALID,917.694,VALID,0.0,VALID,98.833,VALID,0.011,VALID,20.968,INVALID,360.0,VALID,0.0,
2019-10-13, 00:52:06,VALID,917.694,VALID,0.0,VALID,98.754,VALID,0.03,VALID,20.956,INVALID,360.0,VALID,0.0,
2019-10-13, 00:53:06,VALID,917.677,VALID,0.0,VALID,98.756,VALID,0.034,VALID,20.973,INVALID,360.0,VALID,0.0,
2019-10-13, 00:54:06,VALID,917.663,VALID,0.0,VALID,98.765,VALID,0.014,VALID,20.991,INVALID,360.0,VALID,0.0,
2019-10-13, 00:55:06,VALID,917.635,VALID,0.0,VALID,98.711,VALID,0.028,VALID,20.989,INVALID,360.0,VALID,0.0,
2019-10-13, 00:56:06,VALID,917.644,VALID,0.0,VALID,98.597,VALID,0.03,VALID,20.979,INVALID,360.0,VALID,0.0,
2019-10-13, 00:57:06,VALID,917.63,VALID,0.0,VALID,98.524,VALID,0.023,VALID,20.972,INVALID,360.0,VALID,0.0,
2019-10-13, 00:58:06,VALID,917.62,VALID,0.0,VALID,98.552,VALID,0.005,VALID,20.994,INVALID,360.0,VALID,0.0,
2019-10-13, 00:59:06,VALID,917.617,VALID,0.0,VALID,98.505,VALID,0.033,VALID,20.983,INVALID,360.0,VALID,0.0,
2019-10-13, 01:00:06,VALID,917.609,VALID,0.0,VALID,98.554,VALID,0.042,VALID,21.017,INVALID,360.0,VALID,0.0,
2019-10-13, 01:01:06,VALID,917.594,VALID,0.0,VALID,98.593,VALID,0.039,VALID,21.005,INVALID,360.0,VALID,0.0,
2019-10-13, 01:02:06,VALID,917.57,VALID,0.0,VALID,98.412,VALID,0.049,VALID,20.953,INVALID,360.0,VALID,0.0,
2019-10-13, 01:03:06,VALID,917.557,VALID,0.0,VALID,98.326,VALID,0.029,VALID,20.943,INVALID,360.0,VALID,0.0,
2019-10-13, 01:04:06,VALID,917.539,VALID,0.0,VALID,98.38,VALID,0.034,VALID,20.963,INVALID,360.0,VALID,0.0,
2019-10-13, 01:05:06,VALID,917.524,VALID,0.0,VALID,98.375,VALID,0.04,VALID,20.974,INVALID,360.0,VALID,0.0,
2019-10-13, 01:06:06,VALID,917.521,VALID,0.0,VALID,98.356,VALID,0.015,VALID,20.974,INVALID,360.0,VALID,0.0,
2019-10-13, 01:07:06,VALID,917.515,VALID,0.0,VALID,98.405,VALID,0.038,VALID,20.987,INVALID,360.0,VALID,0.0,
2019-10-13, 01:08:06,VALID,917.507,VALID,0.0,VALID,98.386,VALID,0.029,VALID,20.991,INVALID,360.0,VALID,0.0,
2019-10-13, 01:09:06,VALID,917.485,VALID,0.0,VALID,98.374,VALID,0.033,VALID,20.986,INVALID,360.0,VALID,0.0,
2019-10-13, 01:10:06,VALID,917.481,VALID,0.0,VALID,98.363,VALID,0.04,VALID,20.977,INVALID,360.0,VALID,0.0,
2019-10-13, 01:11:06,VALID,917.474,VALID,0.0,VALID,98.336,VALID,0.019,VALID,20.964,INVALID,360.0,VALID,0.0,
2019-10-13, 01:12:06,VALID,917.457,VALID,0.0,VALID,98.245,VALID,0.024,VALID,20.944,INVALID,360.0,VALID,0.0,
2019-10-13, 01:13:06,VALID,917.452,VALID,0.0,VALID,98.336,VALID,0.02,VALID,20.96,INVALID,360.0,VALID,0.0,
2019-10-13, 01:14:06,VALID,917.446,VALID,0.0,VALID,98.407,VALID,0.006,VALID,20.968,VALID,291.0,VALID,0.0,
2019-10-13, 01:15:06,VALID,917.449,VALID,0.0,VALID,98.359,VALID,0.017,VALID,20.916,VALID,288.0,VALID,0.0,
2019-10-13, 01:16:06,VALID,917.442,VALID,0.0,VALID,98.57,VALID,0.007,VALID,20.953,VALID,289.0,VALID,0.0,
2019-10-13, 01:17:06,VALID,917.455,VALID,0.0,VALID,98.781,VALID,0.033,VALID,21.008,INVALID,360.0,VALID,0.0,
2019-10-13, 01:18:06,VALID,917.478,VALID,0.0,VALID,98.813,VALID,0.016,VALID,20.998,INVALID,360.0,VALID,0.0,
2019-10-13, 01:19:06,VALID,917.474,VALID,0.0,VALID,98.787,VALID,0.028,VALID,20.977,INVALID,360.0,VALID,0.0,
2019-10-13, 01:20:06,VALID,917.479,VALID,0.0,VALID,98.916,VALID,0.027,VALID,21.005,INVALID,360.0,VALID,0.0,
2019-10-13, 01:21:06,VALID,917.465,VALID,0.0,VALID,98.868,VALID,0.001,VALID,20.971,INVALID,360.0,VALID,0.0,
2019-10-13, 01:22:06,VALID,917.423,VALID,0.0,VALID,98.849,VALID,-0.003,VALID,20.936,INVALID,360.0,VALID,0.0,
2019-10-13, 01:23:06,VALID,917.392,VALID,0.0,VALID,99.012,VALID,0.006,VALID,20.949,INVALID,360.0,VALID,0.0,
2019-10-13, 01:24:06,VALID,917.378,VALID,0.0,VALID,99.069,VALID,-0.009,VALID,20.919,INVALID,360.0,VALID,0.0,
2019-10-13, 01:25:06,VALID,917.361,VALID,0.0,VALID,99.163,VALID,-0.013,VALID,20.898,INVALID,360.0,VALID,0.0,
2019-10-13, 01:26:06,VALID,917.339,VALID,0.0,VALID,99.236,VALID,-0.008,VALID,20.886,INVALID,360.0,VALID,0.0,
2019-10-13, 01:27:06,VALID,917.335,VALID,0.0,VALID,99.241,VALID,-0.019,VALID,20.84,INVALID,360.0,VALID,0.0,
2019-10-13, 01:28:06,VALID,917.317,VALID,0.0,VALID,99.222,VALID,-0.011,VALID,20.795,INVALID,360.0,VALID,0.0,
2019-10-13, 01:29:06,VALID,917.313,VALID,0.0,VALID,99.29,VALID,-0.008,VALID,20.773,INVALID,360.0,VALID,0.0,
2019-10-13, 01:30:06,VALID,917.291,VALID,0.0,VALID,99.349,VALID,-0.002,VALID,20.751,INVALID,360.0,VALID,0.0,
2019-10-13, 01:31:06,VALID,917.284,VALID,0.0,VALID,99.394,VALID,0.004,VALID,20.741,INVALID,360.0,VALID,0.72,
2019-10-13, 01:32:06,VALID,917.292,VALID,0.0,VALID,99.32,VALID,-0.001,VALID,20.671,VALID,229.0,VALID,1.023,
2019-10-13, 01:33:06,VALID,917.305,VALID,0.0,VALID,99.336,VALID,0.003,VALID,20.65,VALID,244.0,VALID,0.478,
2019-10-13, 01:34:06,VALID,917.323,VALID,0.0,VALID,99.36,VALID,0.003,VALID,20.652,VALID,221.0,VALID,0.377,
2019-10-13, 01:35:06,VALID,917.3,VALID,0.0,VALID,99.392,VALID,0.005,VALID,20.664,VALID,246.0,VALID,0.186,
2019-10-13, 01:36:06,VALID,917.305,VALID,0.0,VALID,99.384,VALID,-0.002,VALID,20.695,VALID,246.0,VALID,0.288,
2019-10-13, 01:37:06,VALID,917.299,VALID,0.0,VALID,99.338,VALID,0.007,VALID,20.703,VALID,233.0,VALID,0.169,
2019-10-13, 01:38:06,VALID,917.3,VALID,0.0,VALID,99.294,VALID,-0.006,VALID,20.703,VALID,216.0,VALID,0.113,
2019-10-13, 01:39:06,VALID,917.268,VALID,0.0,VALID,99.22,VALID,0.014,VALID,20.692,INVALID,360.0,VALID,0.193,
2019-10-13, 01:40:06,VALID,917.23,VALID,0.0,VALID,99.179,VALID,0.021,VALID,20.691,INVALID,360.0,VALID,0.083,
2019-10-13, 01:41:06,VALID,917.2,VALID,0.0,VALID,99.186,VALID,0.008,VALID,20.718,INVALID,360.0,VALID,0.041,
2019-10-13, 01:42:06,VALID,917.156,VALID,0.0,VALID,99.158,VALID,-0.001,VALID,20.73,INVALID,360.0,VALID,0.054,
2019-10-13, 01:43:06,VALID,917.14,VALID,0.0,VALID,99.087,VALID,0.003,VALID,20.72,INVALID,360.0,VALID,0.0,
2019-10-13, 01:44:06,VALID,917.125,VALID,0.0,VALID,99.137,VALID,0.016,VALID,20.742,INVALID,360.0,VALID,0.0,
2019-10-13, 01:45:06,VALID,917.099,VALID,0.0,VALID,99.144,VALID,0.008,VALID,20.759,INVALID,360.0,VALID,0.0,
2019-10-13, 01:46:06,VALID,917.086,VALID,0.0,VALID,99.147,VALID,0.01,VALID,20.78,INVALID,360.0,VALID,0.0,
2019-10-13, 01:47:06,VALID,917.087,VALID,0.0,VALID,99.199,VALID,0.018,VALID,20.818,INVALID,360.0,VALID,0.0,
2019-10-13, 01:48:06,VALID,917.078,VALID,0.0,VALID,99.186,VALID,-0.001,VALID,20.817,INVALID,360.0,VALID,0.0,
2019-10-13, 01:49:06,VALID,917.074,VALID,0.0,VALID,99.175,VALID,-0.005,VALID,20.835,INVALID,360.0,VALID,0.0,
2019-10-13, 01:50:06,VALID,917.076,VALID,0.0,VALID,99.198,VALID,-0.017,VALID,20.863,INVALID,360.0,VALID,0.0,
2019-10-13, 01:51:06,VALID,917.043,VALID,0.0,VALID,99.191,VALID,0.008,VALID,20.872,INVALID,360.0,VALID,0.0,
2019-10-13, 01:52:06,VALID,917.008,VALID,0.0,VALID,99.135,VALID,0.011,VALID,20.867,INVALID,360.0,VALID,0.0,
2019-10-13, 01:53:06,VALID,916.998,VALID,0.0,VALID,99.019,VALID,0.016,VALID,20.827,INVALID,360.0,VALID,0.0,
2019-10-13, 01:54:06,VALID,916.973,VALID,0.0,VALID,99.042,VALID,0.006,VALID,20.852,INVALID,360.0,VALID,0.0,
2019-10-13, 01:55:06,VALID,916.951,VALID,0.0,VALID,98.971,VALID,0.026,VALID,20.845,INVALID,360.0,VALID,0.0,
2019-10-13, 01:56:06,VALID,916.937,VALID,0.0,VALID,98.955,VALID,0.019,VALID,20.848,INVALID,360.0,VALID,0.0,
2019-10-13, 01:57:06,VALID,916.91,VALID,0.0,VALID,98.881,VALID,0.009,VALID,20.831,INVALID,360.0,VALID,0.0,
2019-10-13, 01:58:06,VALID,916.896,VALID,0.0,VALID,98.928,VALID,0.02,VALID,20.844,INVALID,360.0,VALID,0.0,
2019-10-13, 01:59:06,VALID,916.892,VALID,0.0,VALID,98.928,VALID,0.021,VALID,20.841,INVALID,360.0,VALID,0.0,
2019-10-13, 02:00:06,VALID,916.898,VALID,0.0,VALID,98.85,VALID,0.018,VALID,20.815,INVALID,360.0,VALID,0.0,
2019-10-13, 02:01:06,VALID,916.894,VALID,0.0,VALID,98.814,VALID,0.007,VALID,20.781,INVALID,360.0,VALID,0.0,
2019-10-13, 02:02:06,VALID,916.866,VALID,0.0,VALID,98.851,VALID,0.023,VALID,20.765,INVALID,360.0,VALID,0.0,
2019-10-13, 02:03:06,VALID,916.846,VALID,0.0,VALID,98.962,VALID,0.025,VALID,20.778,INVALID,360.0,VALID,0.0,
2019-10-13, 02:04:06,VALID,916.803,VALID,0.0,VALID,98.989,VALID,0.017,VALID,20.763,INVALID,360.0,VALID,0.0,
2019-10-13, 02:05:06,VALID,916.785,VALID,0.0,VALID,99.119,VALID,0.011,VALID,20.773,INVALID,360.0,VALID,0.0,
2019-10-13, 02:06:06,VALID,916.754,VALID,0.0,VALID,99.203,VALID,0.008,VALID,20.799,INVALID,360.0,VALID,0.0,
2019-10-13, 02:07:06,VALID,916.737,VALID,0.0,VALID,99.225,VALID,-0.014,VALID,20.805,INVALID,360.0,VALID,0.0,
2019-10-13, 02:08:06,VALID,916.735,VALID,0.0,VALID,99.142,VALID,-0.019,VALID,20.767,INVALID,360.0,VALID,0.0,
2019-10-13, 02:09:06,VALID,916.738,VALID,0.0,VALID,99.175,VALID,-0.029,VALID,20.744,INVALID,360.0,VALID,0.0,
2019-10-13, 02:10:06,VALID,916.724,VALID,0.0,VALID,99.117,VALID,-0.026,VALID,20.696,INVALID,360.0,VALID,0.0,
2019-10-13, 02:11:06,VALID,916.741,VALID,0.0,VALID,99.152,VALID,-0.03,VALID,20.674,INVALID,360.0,VALID,0.0,
2019-10-13, 02:12:06,VALID,916.75,VALID,0.0,VALID,99.217,VALID,-0.015,VALID,20.685,INVALID,360.0,VALID,0.0,
2019-10-13, 02:13:06,VALID,916.749,VALID,0.0,VALID,99.19,VALID,-0.005,VALID,20.672,VALID,254.0,VALID,0.489,
2019-10-13, 02:14:06,VALID,916.734,VALID,0.0,VALID,99.163,VALID,0.004,VALID,20.661,VALID,244.0,VALID,0.393,
2019-10-13, 02:15:06,VALID,916.732,VALID,0.0,VALID,99.179,VALID,-0.022,VALID,20.668,VALID,239.0,VALID,0.53,
2019-10-13, 02:16:06,VALID,916.712,VALID,0.0,VALID,99.162,VALID,-0.006,VALID,20.667,VALID,237.0,VALID,0.282,
2019-10-13, 02:17:06,VALID,916.704,VALID,0.0,VALID,99.194,VALID,-0.018,VALID,20.686,INVALID,360.0,VALID,0.0,
2019-10-13, 02:18:06,VALID,916.705,VALID,0.0,VALID,99.203,VALID,-0.029,VALID,20.724,INVALID,360.0,VALID,0.0,
2019-10-13, 02:19:06,VALID,916.679,VALID,0.0,VALID,99.261,VALID,-0.02,VALID,20.766,INVALID,360.0,VALID,0.0,
2019-10-13, 02:20:06,VALID,916.647,VALID,0.0,VALID,99.213,VALID,-0.013,VALID,20.766,INVALID,360.0,VALID,0.0,
2019-10-13, 02:21:06,VALID,916.617,VALID,0.0,VALID,99.214,VALID,-0.01,VALID,20.76,VALID,104.0,VALID,0.09,
2019-10-13, 02:22:06,VALID,916.588,VALID,0.0,VALID,99.17,VALID,0.008,VALID,20.763,VALID,152.0,VALID,0.005,
2019-10-13, 02:23:06,VALID,916.584,VALID,0.0,VALID,99.179,VALID,0.001,VALID,20.781,VALID,152.0,VALID,0.0,
2019-10-13, 02:24:06,VALID,916.585,VALID,0.0,VALID,99.138,VALID,-0.01,VALID,20.775,VALID,129.0,VALID,0.091,
2019-10-13, 02:25:06,VALID,916.586,VALID,0.0,VALID,99.055,VALID,-0.004,VALID,20.737,VALID,113.0,VALID,0.117,
2019-10-13, 02:26:06,VALID,916.592,VALID,0.0,VALID,98.995,VALID,0.002,VALID,20.729,VALID,107.0,VALID,0.287,
2019-10-13, 02:27:06,VALID,916.594,VALID,0.0,VALID,98.959,VALID,-0.003,VALID,20.711,VALID,106.0,VALID,0.424,
2019-10-13, 02:28:06,VALID,916.582,VALID,0.0,VALID,98.973,VALID,-0.006,VALID,20.722,VALID,101.0,VALID,0.042,
2019-10-13, 02:29:06,VALID,916.591,VALID,0.0,VALID,98.992,VALID,-0.006,VALID,20.713,VALID,101.0,VALID,0.0,
2019-10-13, 02:30:06,VALID,916.568,VALID,0.0,VALID,99.003,VALID,-0.009,VALID,20.72,VALID,101.0,VALID,0.0,
2019-10-13, 02:31:06,VALID,916.548,VALID,0.0,VALID,98.998,VALID,-0.007,VALID,20.722,VALID,101.0,VALID,0.0,
2019-10-13, 02:32:06,VALID,916.551,VALID,0.0,VALID,99.029,VALID,0.006,VALID,20.747,VALID,101.0,VALID,0.0,
2019-10-13, 02:33:06,VALID,916.571,VALID,0.0,VALID,99.048,VALID,0.008,VALID,20.774,VALID,101.0,VALID,0.0,
2019-10-13, 02:34:06,VALID,916.573,VALID,0.0,VALID,99.051,VALID,0.001,VALID,20.798,VALID,101.0,VALID,0.0,
2019-10-13, 02:35:06,VALID,916.569,VALID,0.0,VALID,98.944,VALID,-0.004,VALID,20.783,VALID,103.0,VALID,0.0,
2019-10-13, 02:36:06,VALID,916.575,VALID,0.0,VALID,98.861,VALID,-0.01,VALID,20.738,VALID,102.0,VALID,0.0,
2019-10-13, 02:37:06,VALID,916.574,VALID,0.0,VALID,98.938,VALID,0.002,VALID,20.766,VALID,109.0,VALID,0.0,
2019-10-13, 02:38:06,VALID,916.571,VALID,0.0,VALID,98.995,VALID,0.015,VALID,20.81,VALID,110.0,VALID,0.0,
2019-10-13, 02:39:06,VALID,916.573,VALID,0.0,VALID,99.056,VALID,0.008,VALID,20.857,VALID,110.0,VALID,0.0,
2019-10-13, 02:40:06,VALID,916.564,VALID,0.0,VALID,99.091,VALID,-0.003,VALID,20.873,VALID,119.0,VALID,0.0,
2019-10-13, 02:41:06,VALID,916.559,VALID,0.0,VALID,98.965,VALID,0.018,VALID,20.831,VALID,139.0,VALID,0.0,
2019-10-13, 02:42:06,VALID,916.563,VALID,0.0,VALID,98.966,VALID,0.005,VALID,20.824,VALID,139.0,VALID,0.0,
2019-10-13, 02:43:06,VALID,916.568,VALID,0.0,VALID,98.972,VALID,-0.002,VALID,20.829,VALID,139.0,VALID,0.0,
2019-10-13, 02:44:06,VALID,916.575,VALID,0.0,VALID,98.98,VALID,0.011,VALID,20.827,VALID,138.0,VALID,0.0,
2019-10-13, 02:45:06,VALID,916.581,VALID,0.0,VALID,99.064,VALID,0.007,VALID,20.857,VALID,136.0,VALID,0.0,
2019-10-13, 02:46:06,VALID,916.58,VALID,0.0,VALID,99.024,VALID,0.01,VALID,20.845,VALID,137.0,VALID,0.0,
2019-10-13, 02:47:06,VALID,916.605,VALID,0.0,VALID,98.955,VALID,-0.006,VALID,20.811,VALID,144.0,VALID,0.0,
2019-10-13, 02:48:06,VALID,916.646,VALID,0.0,VALID,98.934,VALID,0.001,VALID,20.801,VALID,152.0,VALID,0.0,
2019-10-13, 02:49:06,VALID,916.655,VALID,0.0,VALID,98.922,VALID,0.011,VALID,20.812,VALID,154.0,VALID,0.0,
2019-10-13, 02:50:06,VALID,916.681,VALID,0.0,VALID,98.911,VALID,-0.005,VALID,20.827,VALID,154.0,VALID,0.0,
2019-10-13, 02:51:06,VALID,916.7,VALID,0.0,VALID,98.919,VALID,0.016,VALID,20.816,INVALID,360.0,VALID,0.0,
2019-10-13, 02:52:06,VALID,916.694,VALID,0.0,VALID,98.911,VALID,0.008,VALID,20.814,INVALID,360.0,VALID,0.0,
2019-10-13, 02:53:06,VALID,916.702,VALID,0.0,VALID,98.965,VALID,0.011,VALID,20.829,INVALID,360.0,VALID,0.0,
2019-10-13, 02:54:06,VALID,916.689,VALID,0.0,VALID,98.983,VALID,-0.004,VALID,20.817,INVALID,360.0,VALID,0.0,
2019-10-13, 02:55:06,VALID,916.654,VALID,0.0,VALID,98.979,VALID,0.011,VALID,20.805,INVALID,360.0,VALID,0.0,
2019-10-13, 02:56:06,VALID,916.643,VALID,0.0,VALID,98.957,VALID,0.007,VALID,20.8,INVALID,360.0,VALID,0.0,
2019-10-13, 02:57:06,VALID,916.645,VALID,0.0,VALID,98.945,VALID,0.007,VALID,20.775,VALID,257.0,VALID,0.0,
2019-10-13, 02:58:06,VALID,916.642,VALID,0.0,VALID,98.982,VALID,0.007,VALID,20.767,VALID,255.0,VALID,0.0,
2019-10-13, 02:59:06,VALID,916.651,VALID,0.0,VALID,99.059,VALID,-0.004,VALID,20.789,VALID,263.0,VALID,0.0,
2019-10-13, 03:00:06,VALID,916.654,VALID,0.0,VALID,99.122,VALID,0.004,VALID,20.822,INVALID,360.0,VALID,0.0,
2019-10-13, 03:01:06,VALID,916.656,VALID,0.0,VALID,99.116,VALID,0.006,VALID,20.819,INVALID,360.0,VALID,0.0,
2019-10-13, 03:02:06,VALID,916.664,VALID,0.0,VALID,99.104,VALID,0.017,VALID,20.825,INVALID,360.0,VALID,0.0,
2019-10-13, 03:03:06,VALID,916.667,VALID,0.0,VALID,99.112,VALID,0.017,VALID,20.84,INVALID,360.0,VALID,0.0,
2019-10-13, 03:04:06,VALID,916.657,VALID,0.0,VALID,99.066,VALID,0.006,VALID,20.823,INVALID,360.0,VALID,0.0,
2019-10-13, 03:05:06,VALID,916.648,VALID,0.0,VALID,99.033,VALID,-0.006,VALID,20.806,INVALID,360.0,VALID,0.0,
2019-10-13, 03:06:06,VALID,916.658,VALID,0.0,VALID,98.954,VALID,-0.001,VALID,20.776,INVALID,360.0,VALID,0.0,
2019-10-13, 03:07:06,VALID,916.666,VALID,0.0,VALID,99.014,VALID,-0.005,VALID,20.799,INVALID,360.0,VALID,0.0,
2019-10-13, 03:08:06,VALID,916.669,VALID,0.0,VALID,99.017,VALID,0.01,VALID,20.804,INVALID,360.0,VALID,0.0,
2019-10-13, 03:09:06,VALID,916.688,VALID,0.0,VALID,99.048,VALID,-0.005,VALID,20.809,INVALID,360.0,VALID,0.0,
2019-10-13, 03:10:06,VALID,916.688,VALID,0.0,VALID,99.067,VALID,0.003,VALID,20.823,INVALID,360.0,VALID,0.0,
2019-10-13, 03:11:06,VALID,916.714,VALID,0.0,VALID,98.989,VALID,0.009,VALID,20.778,INVALID,360.0,VALID,0.0,
2019-10-13, 03:12:06,VALID,916.727,VALID,0.0,VALID,98.959,VALID,0.002,VALID,20.753,INVALID,360.0,VALID,0.0,
2019-10-13, 03:13:06,VALID,916.735,VALID,0.0,VALID,99.011,VALID,0.002,VALID,20.763,INVALID,360.0,VALID,0.0,
2019-10-13, 03:14:06,VALID,916.729,VALID,0.0,VALID,99.036,VALID,0.006,VALID,20.771,INVALID,360.0,VALID,0.0,
2019-10-13, 03:15:06,VALID,916.736,VALID,0.0,VALID,99.107,VALID,0.014,VALID,20.772,VALID,129.0,VALID,0.0,
2019-10-13, 03:16:06,VALID,916.74,VALID,0.0,VALID,99.094,VALID,0.01,VALID,20.734,VALID,129.0,VALID,0.0,
2019-10-13, 03:17:06,VALID,916.748,VALID,0.0,VALID,99.191,VALID,0.013,VALID,20.757,INVALID,360.0,VALID,0.0,
2019-10-13, 03:18:06,VALID,916.779,VALID,0.0,VALID,99.309,VALID,0.002,VALID,20.813,INVALID,360.0,VALID,0.0,
2019-10-13, 03:19:06,VALID,916.793,VALID,0.0,VALID,99.326,VALID,0.013,VALID,20.814,INVALID,360.0,VALID,0.0,
2019-10-13, 03:20:06,VALID,916.806,VALID,0.0,VALID,99.347,VALID,0.009,VALID,20.811,INVALID,360.0,VALID,0.0,
2019-10-13, 03:21:06,VALID,916.823,VALID,0.0,VALID,99.399,VALID,0.002,VALID,20.843,INVALID,360.0,VALID,0.0,
2019-10-13, 03:22:06,VALID,916.833,VALID,0.0,VALID,99.361,VALID,0.007,VALID,20.835,INVALID,360.0,VALID,0.0,
2019-10-13, 03:23:06,VALID,916.845,VALID,0.0,VALID,99.296,VALID,0.001,VALID,20.803,INVALID,360.0,VALID,0.0,
2019-10-13, 03:24:06,VALID,916.813,VALID,0.0,VALID,99.299,VALID,0.006,VALID,20.818,INVALID,360.0,VALID,0.0,
2019-10-13, 03:25:06,VALID,916.835,VALID,0.0,VALID,99.322,VALID,0.018,VALID,20.839,INVALID,360.0,VALID,0.0,
2019-10-13, 03:26:06,VALID,916.843,VALID,0.0,VALID,99.274,VALID,0.002,VALID,20.829,INVALID,360.0,VALID,0.0,
2019-10-13, 03:27:06,VALID,916.855,VALID,0.0,VALID,99.267,VALID,0.011,VALID,20.842,INVALID,360.0,VALID,0.0,
2019-10-13, 03:28:06,VALID,916.86,VALID,0.0,VALID,99.303,VALID,0.005,VALID,20.839,INVALID,360.0,VALID,0.0,
2019-10-13, 03:29:06,VALID,916.874,VALID,0.0,VALID,99.318,VALID,0.003,VALID,20.856,INVALID,360.0,VALID,0.0,
2019-10-13, 03:30:06,VALID,916.864,VALID,0.0,VALID,99.383,VALID,0.013,VALID,20.866,INVALID,360.0,VALID,0.0,
2019-10-13, 03:31:06,VALID,916.888,VALID,0.0,VALID,99.337,VALID,0.023,VALID,20.83,INVALID,360.0,VALID,0.0,
2019-10-13, 03:32:06,VALID,916.864,VALID,0.0,VALID,99.329,VALID,0.02,VALID,20.781,INVALID,360.0,VALID,0.0,
2019-10-13, 03:33:06,VALID,916.89,VALID,0.0,VALID,99.238,VALID,0.014,VALID,20.696,INVALID,360.0,VALID,0.0,
2019-10-13, 03:34:06,VALID,916.898,VALID,0.0,VALID,99.264,VALID,0.006,VALID,20.662,INVALID,360.0,VALID,0.0,
2019-10-13, 03:35:06,VALID,916.914,VALID,0.0,VALID,99.381,VALID,0.013,VALID,20.709,INVALID,360.0,VALID,0.0,
2019-10-13, 03:36:06,VALID,916.923,VALID,0.0,VALID,99.365,VALID,0.011,VALID,20.692,VALID,326.0,VALID,0.0,
2019-10-13, 03:37:06,VALID,916.907,VALID,0.0,VALID,99.361,VALID,-0.005,VALID,20.686,VALID,329.0,VALID,0.0,
2019-10-13, 03:38:06,VALID,916.911,VALID,0.0,VALID,99.322,VALID,0.001,VALID,20.664,INVALID,360.0,VALID,0.0,